Pocatello, ID

2:35 AM MST on February 22, 2017 (GMT -0700)
Pocatello Regional

Weather History for KPIH - May, 2014

Change the Weather History Date:

Monday, May 12, 2014

  Actual Average Record
Temperature  
Mean Temperature 46 °F 53 °F  
Max Temperature 60 °F 67 °F 92 °F (2001)
Min Temperature 32 °F 39 °F 28 °F (1966)
Degree Days  
Heating Degree Days 19 12  
Month to date heating degree days 165 167  
Since 1 July heating degree days 6435 6861  
Cooling Degree Days 0 0  
Month to date cooling degree days 0 0  
Year to date cooling degree days 0 0  
Moisture  
Dew Point 22 °F    
Average Humidity 46    
Maximum Humidity 75    
Minimum Humidity 17    
Precipitation  
Precipitation 0.00 in 0.05 in 0.31 in (1957)
Month to date precipitation 0.34 0.56  
Year to date precipitation 5.71 4.93  
Snow  
Snow 0.00 in - - ()
Month to date snowfall 0.0  
Since 1 July snowfall 29.4  
Snow Depth 0.00 in    
Sea Level Pressure  
Sea Level Pressure 30.29 in    
Wind  
Wind Speed 11 mph (NE)    
Max Wind Speed 22 mph    
Max Gust Speed 28 mph    
Visibility 10 miles    
Events      
T = Trace of Precipitation, MM = Missing Value Source: NWS Daily Summary

Daily Weather History Graph

Daily Weather History Graph

Search for Another Location

Airport or City:

Trip Planner

Search our weather history database for the weather conditions in past years. The results will help you decide how hot, cold, wet, or windy it might be!

Date:

Astronomy

May. 12, 2014 Rise Set
Actual Time 6:10 AM MDT 8:43 PM MDT
Civil Twilight 5:38 AM MDT 9:15 PM MDT
Nautical Twilight 4:58 AM MDT 9:56 PM MDT
Astronomical Twilight 4:12 AM MDT 10:42 PM MDT
Moon 6:42 PM MDT (5/12) 4:55 AM MDT (5/12)
Length of Visible Light 15h 37m
Length of Day
14h 33m
Waxing Gibbous, 95% of the Moon is Illuminated
May 12
Waxing Gibbous
May 14
Full
May 21
Last Quarter
May 28
New
Jun 5
First Quarter

Hourly Weather History & Observations

Time (MDT) Temp. Windchill Dew Point Humidity Pressure Visibility Wind Dir Wind Speed Gust Speed Precip Events Conditions
12:53 AM 37.0 °F - 24.1 °F 59% 30.15 in 10.0 mi Calm Calm - N/A   Clear
1:53 AM 36.0 °F - 24.1 °F 62% 30.17 in 10.0 mi Calm Calm - N/A   Clear
2:53 AM 35.1 °F 27.9 °F 26.1 °F 70% 30.18 in 10.0 mi ENE 9.2 mph - N/A   Clear
3:53 AM 34.0 °F 28.8 °F 26.1 °F 73% 30.19 in 10.0 mi East 5.8 mph - N/A   Clear
4:53 AM 34.0 °F - 27.0 °F 75% 30.21 in 10.0 mi Calm Calm - N/A   Overcast
5:53 AM 33.1 °F 26.9 °F 26.1 °F 75% 30.24 in 10.0 mi NE 6.9 mph - N/A   Overcast
6:53 AM 34.0 °F 27.2 °F 26.1 °F 73% 30.26 in 10.0 mi ENE 8.1 mph - N/A   Scattered Clouds
7:53 AM 37.4 °F 30.8 °F 26.6 °F 65% 30.30 in 10.0 mi NE 9.2 mph - N/A   Partly Cloudy
8:53 AM 42.1 °F 34.2 °F 27.0 °F 55% 30.30 in 10.0 mi NNE 16.1 mph - N/A   Clear
9:53 AM 46.0 °F 39.9 °F 27.0 °F 47% 30.30 in 10.0 mi NE 13.8 mph - N/A   Clear
10:53 AM 50.0 °F - 26.1 °F 39% 30.29 in 10.0 mi NNE 17.3 mph 24.2 mph N/A   Partly Cloudy
11:53 AM 52.0 °F - 21.9 °F 31% 30.29 in 10.0 mi North 19.6 mph 25.3 mph N/A   Partly Cloudy
12:53 PM 54.0 °F - 24.1 °F 31% 30.28 in 10.0 mi NNE 16.1 mph 23.0 mph N/A   Scattered Clouds
1:53 PM 55.9 °F - 19.0 °F 24% 30.28 in 10.0 mi NNE 11.5 mph 21.9 mph N/A   Mostly Cloudy
2:34 PM 55.0 °F - 21.9 °F 28% 30.30 in 10.0 mi ENE 11.5 mph 23.0 mph N/A   Mostly Cloudy
2:53 PM 55.0 °F - 21.9 °F 28% 30.29 in 10.0 mi Variable 6.9 mph 18.4 mph N/A   Mostly Cloudy
3:53 PM 60.1 °F - 19.0 °F 20% 30.28 in 10.0 mi North 17.3 mph 23.0 mph N/A   Mostly Cloudy
4:53 PM 59.0 °F - 15.1 °F 18% 30.29 in 10.0 mi North 15.0 mph - N/A   Scattered Clouds
5:53 PM 57.9 °F - 14.0 °F 18% 30.29 in 10.0 mi NNE 18.4 mph 24.2 mph N/A   Scattered Clouds
6:53 PM 57.0 °F - 14.0 °F 18% 30.30 in 10.0 mi NNE 19.6 mph - N/A   Scattered Clouds
7:53 PM 53.1 °F - 16.0 °F 23% 30.32 in 10.0 mi NNE 15.0 mph - N/A   Partly Cloudy
8:53 PM 46.4 °F 42.4 °F 17.6 °F 32% 30.35 in 10.0 mi NE 8.1 mph - N/A   Partly Cloudy
9:53 PM 43.0 °F 40.3 °F 19.0 °F 38% 30.37 in 10.0 mi North 4.6 mph - N/A   Clear
10:53 PM 42.1 °F 34.9 °F 18.0 °F 38% 30.39 in 10.0 mi ENE 13.8 mph - N/A   Clear
11:53 PM 42.8 °F - 17.6 °F 36% 30.43 in 10.0 mi Calm Calm - N/A   Clear